User: anonymous   Login
Location: Unspecified
(0.0000°N, 0.0000°E)
Time: 23:19:48
(UTC+00:00)
Language:

Oscar 19 - Orbit

View from above orbital plane
View from above orbital plane
View from above satellite
View from above satellite

Ground track
Ground track

The orbit data is extracted from the following two-line orbital elements,

1 20442U 90005G   17141.95766541 +.00000006 +00000-0 +18401-4 0  9997
2 20442 098.5746 078.7400 0010899 221.3194 138.7166 14.32859651427805
Epoch (UTC): 21 May 2017 22:59:02
Eccentricity: 0.0010899
inclination: 98.5746°
perigee height: 774 km
apogee height: 790 km
right ascension of ascending node: 78.7400°
argument of perigee: 221.3194°
revolutions per day: 14.32859651
mean anomaly at epoch: 138.7166°
orbit number at epoch: 42780

The dashed part of the orbit path shows where the satellite is in the earth's shadow,  

DLR